Pine Ridge, SD

2:07 AM MST on February 28, 2017 (GMT -0700)
Pine Ridge

Weather History for KIEN - January, 2014

Change the Weather History Date:

Sunday, January 5, 2014

  Actual Average Record
Temperature  
Mean Temperature -2 °F 23 °F  
Max Temperature 10 °F 37 °F 62 °F (2012)
Min Temperature -15 °F 9 °F -22 °F (2005)
Degree Days  
Heating Degree Days 67 42  
Month to date heating degree days 227 211  
Since 1 July heating degree days 3218 3201  
Cooling Degree Days 0 0  
Month to date cooling degree days 0 0  
Year to date cooling degree days 0 0  
Moisture  
Dew Point -8 °F    
Average Humidity 68    
Maximum Humidity 83    
Minimum Humidity 52    
Precipitation  
Precipitation T in 0.01 in 0.07 in (2000)
Month to date precipitation 0.05 0.04  
Year to date precipitation 0.05 0.04  
Sea Level Pressure  
Sea Level Pressure 30.44 in    
Wind  
Wind Speed 9 mph (North)    
Max Wind Speed 24 mph    
Max Gust Speed 30 mph    
Visibility 5 miles    
Events Snow    
T = Trace of Precipitation, MM = Missing Value Source: NWS Daily Summary

Daily Weather History Graph

Daily Weather History Graph

Search for Another Location

Airport or City:

Trip Planner

Search our weather history database for the weather conditions in past years. The results will help you decide how hot, cold, wet, or windy it might be!

Date:

Astronomy

Jan. 05, 2014 Rise Set
Actual Time 7:21 AM MST 4:29 PM MST
Civil Twilight 6:49 AM MST 5:01 PM MST
Nautical Twilight 6:13 AM MST 5:37 PM MST
Astronomical Twilight 5:39 AM MST 6:11 PM MST
Moon 9:56 AM MST (1/5) 10:09 PM MST (1/5)
Length of Visible Light 10h 12m
Length of Day
9h 08m
Waxing Crescent, 25% of the Moon is Illuminated
Jan 5
Waxing Crescent
Jan 7
First Quarter
Jan 15
Full
Jan 23
Last Quarter
Jan 30
New

Hourly Weather History & Observations

Time (MST) Temp. Windchill Dew Point Humidity Pressure Visibility Wind Dir Wind Speed Gust Speed Precip Events Conditions
12:08 AM 10.4 °F -0.4 °F 3.2 °F 73% 30.18 in 5.0 mi NNE 6.9 mph - 0.00 in Snow Light Snow
12:15 AM 10.4 °F -2.4 °F 3.2 °F 73% 30.18 in 1.8 mi NNE 9.2 mph - 0.00 in Snow Light Snow
12:24 AM 10.4 °F -3.3 °F 3.2 °F 73% 30.18 in 1.5 mi North 10.4 mph - 0.00 in Snow Light Snow
12:32 AM 10.4 °F -1.5 °F 3.2 °F 73% 30.18 in 3.0 mi North 8.1 mph - 0.00 in Snow Light Snow
12:47 AM 10.4 °F -1.5 °F 3.2 °F 73% 30.19 in 2.5 mi NNE 8.1 mph - 0.00 in Snow Light Snow
12:52 AM 9.0 °F -2.2 °F 3.9 °F 80% 30.36 in 2.5 mi NE 6.9 mph - 0.00 in Snow Light Snow
1:04 AM 8.6 °F -4.7 °F 3.2 °F 79% 30.20 in 4.0 mi NE 9.2 mph - 0.00 in Snow Light Snow
1:52 AM 9.0 °F -4.2 °F 1.9 °F 73% 30.38 in 9.0 mi North 9.2 mph - 0.00 in   Overcast
2:52 AM 7.0 °F -5.7 °F 1.0 °F 77% 30.39 in 10.0 mi NNE 8.1 mph - N/A   Mostly Cloudy
3:52 AM 6.1 °F -5.6 °F -0.0 °F 76% 30.40 in 10.0 mi NNE 6.9 mph - N/A   Overcast
4:52 AM 6.1 °F -7.8 °F -0.9 °F 73% 30.43 in 10.0 mi North 9.2 mph - N/A   Overcast
5:52 AM 5.0 °F -5.6 °F -0.9 °F 76% 30.44 in 5.0 mi North 5.8 mph - N/A   Haze
6:08 AM 5.0 °F -6.9 °F -2.2 °F 72% 30.25 in 4.0 mi North 6.9 mph - N/A   Haze
6:36 AM 5.0 °F -5.6 °F -2.2 °F 72% 30.26 in 10.0 mi North 5.8 mph - N/A   Overcast
6:50 AM 5.0 °F -6.9 °F -2.2 °F 72% 30.27 in 10.0 mi NNE 6.9 mph - N/A   Overcast
6:52 AM 5.0 °F -5.6 °F -2.0 °F 73% 30.47 in 10.0 mi North 5.8 mph - N/A   Overcast
7:52 AM 3.9 °F -13.0 °F -4.0 °F 70% 30.50 in 10.0 mi North 12.7 mph - 0.00 in   Overcast
8:30 AM 3.2 °F -13.9 °F -4.0 °F 72% 30.31 in 2.0 mi NNE 12.7 mph - 0.00 in Snow Light Snow
8:48 AM 3.2 °F -13.9 °F -4.0 °F 72% 30.32 in 4.0 mi NNE 12.7 mph - 0.00 in Snow Light Snow
8:52 AM 3.0 °F -15.5 °F -4.0 °F 73% 30.53 in 6.0 mi NNE 15.0 mph - 0.00 in Snow Light Snow
9:28 AM 3.2 °F -11.3 °F -2.2 °F 78% 30.35 in 1.8 mi North 9.2 mph - 0.00 in Snow Light Snow
9:38 AM 3.2 °F -16.5 °F -2.2 °F 78% 30.35 in 0.5 mi NNE 17.3 mph 21.9 mph 0.00 in Snow Snow
9:52 AM 1.9 °F -18.1 °F -5.1 °F 72% 30.58 in 0.8 mi NNE 17.3 mph 23.0 mph 0.00 in Snow Light Snow
9:59 AM 1.4 °F -16.9 °F -5.8 °F 72% 30.37 in 1.5 mi North 13.8 mph 23.0 mph 0.00 in Snow Light Snow
10:06 AM 1.4 °F -16.9 °F -5.8 °F 72% 30.37 in 3.0 mi North 13.8 mph 20.7 mph 0.00 in Snow Light Snow
10:18 AM 1.4 °F -19.4 °F -7.6 °F 66% 30.37 in 1.8 mi North 18.4 mph 24.2 mph 0.00 in Snow Light Snow
10:29 AM 1.4 °F -16.9 °F -7.6 °F 66% 30.38 in 1.5 mi North 13.8 mph 25.3 mph 0.00 in Snow Light Snow
10:52 AM -0.0 °F -21.3 °F -8.0 °F 69% 30.60 in 1.8 mi North 18.4 mph 27.6 mph 0.00 in Snow Light Snow
11:35 AM -0.4 °F -22.3 °F -7.6 °F 72% 30.39 in 0.5 mi North 19.6 mph 28.8 mph 0.00 in Snow Snow
11:52 AM -2.0 °F -25.0 °F -9.0 °F 72% 30.62 in 0.8 mi North 20.7 mph 26.5 mph 0.00 in Snow Light Snow
12:05 PM -2.2 °F -25.2 °F -9.4 °F 71% 30.39 in 1.0 mi North 20.7 mph 26.5 mph 0.00 in Snow Light Snow
12:13 PM -2.2 °F -20.7 °F -11.2 °F 66% 30.39 in 2.0 mi North 12.7 mph 27.6 mph 0.00 in   Overcast
12:24 PM -2.2 °F -22.2 °F -11.2 °F 66% 30.39 in 4.0 mi North 15.0 mph 24.2 mph 0.00 in   Overcast
12:34 PM -2.2 °F -24.1 °F -11.2 °F 66% 30.39 in 1.8 mi North 18.4 mph 23.0 mph 0.00 in Snow Light Snow
12:42 PM -2.2 °F -21.5 °F -11.2 °F 66% 30.39 in 3.0 mi North 13.8 mph 23.0 mph 0.00 in Snow Light Snow
12:52 PM -2.9 °F -23.8 °F -11.0 °F 68% 30.63 in 2.5 mi NNW 16.1 mph 24.2 mph 0.00 in Snow Light Snow
1:11 PM -2.2 °F -22.2 °F -13.0 °F 60% 30.40 in 1.8 mi NNW 15.0 mph 20.7 mph 0.00 in Snow Light Snow
1:45 PM -4.0 °F -23.0 °F -11.2 °F 71% 30.41 in 2.5 mi NNW 12.7 mph 19.6 mph 0.00 in   Haze
1:52 PM -4.0 °F -25.2 °F -13.0 °F 65% 30.64 in 2.0 mi North 16.1 mph 21.9 mph 0.00 in   Haze
2:00 PM -5.8 °F -28.2 °F -14.8 °F 65% 30.41 in 1.2 mi North 17.3 mph 26.5 mph 0.00 in   Overcast
2:14 PM -5.8 °F -28.2 °F -14.8 °F 65% 30.42 in 3.0 mi North 17.3 mph 23.0 mph 0.00 in   Overcast
2:52 PM -7.1 °F -26.8 °F -18.0 °F 59% 30.69 in 10.0 mi North 12.7 mph 20.7 mph 0.00 in   Overcast
3:29 PM -7.6 °F -27.5 °F -18.4 °F 59% 30.44 in 10.0 mi North 12.7 mph - N/A   Scattered Clouds
3:52 PM -8.0 °F -28.0 °F -20.0 °F 56% 30.70 in 10.0 mi North 12.7 mph - N/A   Clear
4:52 PM -9.9 °F -26.3 °F -20.0 °F 61% 30.72 in 10.0 mi NNW 8.1 mph - N/A   Clear
5:52 PM -11.0 °F - -20.9 °F 62% 30.73 in 10.0 mi Calm Calm - N/A   Clear
6:52 PM -11.9 °F - -20.0 °F 67% 30.72 in 10.0 mi Calm Calm - N/A   Clear
7:52 PM -14.1 °F - -20.9 °F 71% 30.71 in 10.0 mi Calm Calm - N/A   Clear
8:52 PM -15.0 °F - -22.0 °F 71% 30.71 in 10.0 mi Calm Calm - N/A   Clear
9:52 PM -11.9 °F -23.8 °F -20.0 °F 67% 30.68 in 10.0 mi West 4.6 mph - N/A   Clear
10:52 PM -9.9 °F -23.4 °F -18.9 °F 65% 30.65 in 10.0 mi West 5.8 mph - N/A   Clear
11:52 PM -9.9 °F -24.9 °F -18.9 °F 65% 30.62 in 10.0 mi West 6.9 mph - N/A   Clear